Tiempo atmosférico en la estación meteorológica de Vandellós, Tarragona (22 m.)



Fecha
DESCASC
Temp. máxima en grados centígrados (hora)
DESCASC
Temp. mínima en grados centígrados (hora)
DESCASC
Temp. media en grados centígrados
DESCASC
Racha de viento máxima en m/sg (hora)
DESCASC
Velocidad máxima media en intervalos de 10 minutos(hora)
DESCASC
Precipitaciones diarias en mm
DESCASC
Precipitaciones de 00:00 a 06:00 en mm
DESCASC
Precipitaciones de 06:00 a 12:00 en mm
DESCASC
Precipitaciones de 12:00 a 18:00 en mm
DESCASC
Precipitaciones de 18:00 a 24:00 en mm
DESCASC
14-12-2019 18.4 (13:00) 13.6 (23:59) 16 24.72 (06:00) 9.17 (15:20) 0 0 0 0 0
13-12-2019 19.1 (09:10) 14.6 (00:00) 16.9 27.5 (09:10) 9.72 (09:10) 0 0 0 0 0
12-12-2019 14.8 (23:59) 9.3 (05:10) 12.1 14.72 (07:00) 5.83 (07:00) 0.2 0 0 0 0.2
11-12-2019 16.9 (12:10) 6.6 (00:00) 11.7 18.89 (19:10) 7.78 (16:50) 0 0 0 0 0
10-12-2019 15.5 (18:10) 8.8 (23:59) 12.2 25 (00:50) 9.72 (01:00) 0 0 0 0 0
09-12-2019 15.4 (13:30) 11.7 (05:50) 13.5 25.56 (23:40) 10.28 (02:50) 0 0 0 0 0
08-12-2019 17.3 (13:50) 7.5 (00:00) 12.4 21.11 (23:30) 9.17 (23:30) 0 0 0 0 0
07-12-2019 15.8 (13:30) 7.8 (00:00) 11.8 4.72 (13:40) 1.94 (18:50) 0 0 0 0 0
06-12-2019 16.7 (13:40) 8.3 (00:00) 12.5 3.61 (07:30) 2.22 (06:20) 0.8 0 0.8 0 0
05-12-2019 13.5 (09:50) 10.5 (00:00) 12 8.33 (16:50) 3.33 (16:50) 10.1 0.2 0.4 9.2 0.3
04-12-2019 13.5 (04:40) 9.3 (12:20) 11.4 13.89 (11:20) 5.56 (02:30) 35.7 0.1 22 13.6 0
03-12-2019 13.3 (23:20) 7.3 (00:00) 10.3 15.56 (05:10) 6.67 (07:20) 0.7 0 0 0.7 0
02-12-2019 16.1 (13:50) 9.1 (00:00) 12.6 10.83 (20:40) 5.56 (22:50) 0 0 0 0 0
01-12-2019 17 (12:50) 8.8 (00:00) 12.9 18.89 (03:40) 11.39 (03:20) 0 0 0 0 0
30-11-2019 16.4 (13:20) 10 (00:00) 13.2 3.06 (13:10) 1.39 (15:30) 0 0 0 0 0
29-11-2019 20.8 (13:00) 13.2 (00:00) 17 9.72 (01:40) 3.61 (21:00) 0 0 0 0 0
28-11-2019 20.7 (14:00) 13.9 (20:50) 17.3 15 (04:30) 5.56 (04:30) 0 0 0 0 0
27-11-2019 20.2 (03:30) 11 (00:00) 15.6 14.72 (10:20) 5.83 (03:20) 0 0 0 0 0
26-11-2019 19.9 (12:10) 10 (00:00) 14.9 6.94 (07:30) 3.33 (07:30) 0.1 0 0 0 0.1
25-11-2019 19.2 (15:00) 11.2 (04:20) 15.2 14.17 (00:30) 5.28 (00:30) 0 0 0 0 0
24-11-2019 14.8 (15:00) 10.6 (00:00) 12.7 24.17 (09:50) 12.78 (11:00) 0 0 0 0 0
23-11-2019 14.1 (00:10) 9.8 (00:00) 12 25 (21:20) 9.44 (16:10) 0.2 0.2 0 0 0
22-11-2019 15.7 (12:30) 10 (00:00) 12.8 6.94 (22:00) 3.33 (23:59) 7.9 0 0 3.5 4.4
21-11-2019 16.2 (13:10) 7.4 (00:00) 11.8 7.78 (12:30) 2.5 (13:40) 0 0 0 0 0
20-11-2019 14.2 (13:50) 5 (01:40) 9.6 4.17 (17:20) 2.5 (17:40) 0 0 0 0 0
19-11-2019 12.6 (13:50) 6.5 (00:00) 9.6 18.61 (07:10) 8.89 (07:30) 0 0 0 0 0
18-11-2019 12.4 (17:40) 8.4 (00:00) 10.4 19.72 (22:00) 8.89 (23:00) 0 0 0 0 0
17-11-2019 15 (14:00) 7.7 (00:00) 11.3 20.56 (06:40) 8.33 (07:40) 0 0 0 0 0
16-11-2019 10.9 (16:10) 6 (00:00) 8.4 16.67 (11:30) 8.89 (11:30) 0 0 0 0 0

Gráficas

Temp. máximas Temp. mínimas Temp. medias Precipitaciones Rachas de viento máximas Velocidades máximas media en intervalos de 10 minutos

Datos horarios

Fecha y hora oficial Temperatura (ºC) Velocidad del viento (km/h) Dirección del viento Racha (km/h) Dirección de racha Precipitación (mm) Presión (hPa) Tendencia (hPa) Humedad (%)
2019-12-15 23:00:00 9.5 0 Calma 4 Oeste 0 -- -- 77
2019-12-15 22:00:00 11.2 0 Calma 7 Oeste 0 -- -- 72
2019-12-15 21:00:00 11.8 5 Sudoeste 10 Sudoeste 0 -- -- 79
2019-12-15 20:00:00 11.7 5 Sudoeste 10 Sudoeste 0 -- -- 82
2019-12-15 19:00:00 10.5 3 Oeste 5 Sudoeste 0 -- -- 72
2019-12-15 18:00:00 12 4 Sudoeste 8 Sudoeste 0 -- -- 70
2019-12-15 17:00:00 13.9 2 Sur 10 Sur 0 -- -- 67
2019-12-15 16:00:00 15.7 5 Sudeste 15 Noroeste 0 -- -- 51
2019-12-15 15:00:00 16.9 7 Noroeste 17 Oeste 0 -- -- 47
2019-12-15 14:00:00 17.4 7 Sudoeste 22 Sudoeste 0 -- -- 45
2019-12-15 13:00:00 17.6 6 Sudoeste 18 Sudoeste 0 -- -- 45
2019-12-15 12:00:00 17 4 Sudoeste 17 Norte 0 -- -- 46
2019-12-15 11:00:00 16 0 Calma 12 Sudoeste 0 -- -- 47
2019-12-15 10:00:00 14.2 2 Sudoeste 14 Oeste 0 -- -- 51
2019-12-15 09:00:00 13.4 3 Oeste 27 Sudoeste 0 -- -- 51
2019-12-15 08:00:00 13.3 4 Sur 23 Sur 0 -- -- 51
2019-12-15 07:00:00 13.6 8 Sur 23 Oeste 0 -- -- 50
2019-12-15 06:00:00 14.1 6 Sudoeste 30 Sudoeste 0 -- -- 49
2019-12-15 05:00:00 14.2 9 Sudoeste 33 Oeste 0 -- -- 48
2019-12-15 04:00:00 14.5 10 Sudoeste 31 Sudoeste 0 -- -- 48
2019-12-15 03:00:00 14.4 12 Sudoeste 30 Sudoeste 0 -- -- 48
2019-12-15 02:00:00 14.3 8 Sudoeste 27 Sudoeste 0 -- -- 48
2019-12-15 01:00:00 14 6 Sudoeste 20 Sudoeste 0 -- -- 49
2019-12-15 00:00:00 13.6 4 Sur 24 Sudoeste 0 -- -- 49
2019-12-14 23:00:00 14.1 5 Sudoeste 21 Sudoeste 0 -- -- 48
2019-12-14 22:00:00 14.7 6 Oeste 37 Oeste 0 -- -- 46
2019-12-14 21:00:00 15.3 9 Noroeste 28 Sudoeste 0 -- -- 46
2019-12-14 20:00:00 15.4 9 Oeste 36 Oeste 0 -- -- 46
2019-12-14 19:00:00 16.2 15 Noroeste 39 Oeste 0 -- -- 45
2019-12-14 18:00:00 16.4 15 Noroeste 55 Noroeste 0 -- -- 45
2019-12-14 17:00:00 16.7 22 Noroeste 51 Noroeste 0 -- -- 45
2019-12-14 16:00:00 16.8 18 Noroeste 62 Noroeste 0 -- -- 45
2019-12-14 15:00:00 17.2 23 Oeste 51 Oeste 0 -- -- 44
2019-12-14 14:00:00 17.3 19 Oeste 49 Sudoeste 0 -- -- 44
2019-12-14 13:00:00 17.7 2 Sur 49 Oeste 0 -- -- 44
2019-12-14 12:00:00 16.9 17 Oeste 47 Oeste 0 -- -- 45
2019-12-14 11:00:00 16.4 7 Oeste 36 Noroeste 0 -- -- 47
2019-12-14 10:00:00 15.7 9 Oeste 51 Oeste 0 -- -- 48
2019-12-14 09:00:00 15.7 8 Este 71 Noroeste 0 -- -- 48
2019-12-14 08:00:00 15.3 17 Noroeste 78 Sudoeste 0 -- -- 50
2019-12-14 07:00:00 15.5 26 Oeste 74 Oeste 0 -- -- 49
2019-12-14 06:00:00 15.6 31 Oeste 89 Sudoeste 0 -- -- 49
2019-12-14 05:00:00 16.1 21 Oeste 62 Oeste 0 -- -- 49
2019-12-14 04:00:00 16.4 15 Oeste 57 Oeste 0 -- -- 49
2019-12-14 03:00:00 16.7 16 Oeste 59 Sudoeste 0 -- -- 49
2019-12-14 02:00:00 17.1 23 Oeste 69 Oeste 0 -- -- 49
2019-12-14 01:00:00 17.3 19 Oeste 62 Noroeste 0 -- -- 51
2019-12-14 00:00:00 17.3 24 Oeste 72 Sudoeste 0 -- -- 54
2019-12-13 23:00:00 18 24 Oeste 71 Oeste 0 -- -- 53
2019-12-13 22:00:00 17.5 11 Oeste 52 Oeste 0 -- -- 54
2019-12-13 21:00:00 17.9 22 Oeste 68 Oeste 0 -- -- 53
2019-12-13 20:00:00 18.2 21 Oeste 62 Sudoeste 0 -- -- 51
2019-12-13 19:00:00 18.1 21 Oeste 70 Oeste 0 -- -- 51
2019-12-13 18:00:00 18.3 20 Oeste 67 Sudoeste 0 -- -- 50
2019-12-13 17:00:00 18.6 13 Noroeste 72 Oeste 0 -- -- 49
2019-12-13 16:00:00 19 27 Oeste 93 Sudoeste 0 -- -- 48
2019-12-13 15:00:00 19 27 Oeste 80 Oeste 0 -- -- 48
2019-12-13 14:00:00 18.5 20 Oeste 81 Oeste 0 -- -- 49
2019-12-13 13:00:00 18.6 31 Oeste 75 Sudoeste 0 -- -- 48
2019-12-13 12:00:00 18.3 30 Oeste 94 Sudoeste 0 -- -- 49
2019-12-13 11:00:00 17.9 28 Oeste 78 Oeste 0 -- -- 49
2019-12-13 10:00:00 18.4 28 Oeste 99 Oeste 0 -- -- 49
2019-12-13 09:00:00 19 34 Oeste 76 Oeste 0 -- -- 48
2019-12-13 08:00:00 18.5 20 Oeste 71 Noroeste 0 -- -- 49
2019-12-13 07:00:00 18.4 26 Oeste 62 Oeste 0 -- -- 50
2019-12-13 06:00:00 17.9 26 Oeste 81 Oeste 0 -- -- 51
2019-12-13 05:00:00 17.4 24 Oeste 81 Oeste 0 -- -- 52
2019-12-13 04:00:00 17.1 24 Oeste 83 Noroeste 0 -- -- 53
2019-12-13 03:00:00 16.8 26 Oeste 74 Sudoeste 0 -- -- 54
2019-12-13 02:00:00 15.9 26 Oeste 71 Oeste 0 -- -- 54
2019-12-13 01:00:00 15.5 23 Oeste 57 Oeste 0 -- -- 55
2019-12-13 00:00:00 14.6 10 Oeste 35 Noroeste 0 -- -- 55
2019-12-12 23:00:00 13.9 15 Sudoeste 44 Sudoeste 0 -- -- 54
2019-12-12 22:00:00 13.2 14 Sudoeste 41 Sudoeste 0 -- -- 55
2019-12-12 21:00:00 12.4 15 Sudoeste 41 Sudoeste 0 -- -- 58
2019-12-12 20:00:00 12 14 Sudoeste 43 Sudoeste 0.1 -- -- 60
2019-12-12 19:00:00 11.7 17 Sudoeste 42 Sudoeste 0.1 -- -- 61
2019-12-12 18:00:00 12.6 15 Sudoeste 48 Oeste 0 -- -- 53
2019-12-12 17:00:00 12.6 10 Sudoeste 36 Sudoeste 0 -- -- 52
2019-12-12 16:00:00 13.4 12 Sudoeste 30 Sudoeste 0 -- -- 50
2019-12-12 15:00:00 13.8 5 Sudoeste 27 Sudoeste 0 -- -- 49
2019-12-12 14:00:00 14.1 11 Sudoeste 40 Oeste 0 -- -- 49
2019-12-12 13:00:00 14.2 12 Sudoeste 35 Sudoeste 0 -- -- 48
2019-12-12 12:00:00 13.4 10 Sudoeste 36 Oeste 0 -- -- 50
2019-12-12 11:00:00 10.7 11 Sudoeste 26 Sudoeste 0 -- -- 55
2019-12-12 10:00:00 9.5 8 Sudoeste 30 Sudoeste 0 -- -- 56
2019-12-12 09:00:00 9.9 10 Oeste 40 Oeste 0 -- -- 55
2019-12-12 08:00:00 10.3 13 Noroeste 44 Oeste 0 -- -- 57
2019-12-12 07:00:00 10 21 Oeste 53 Oeste 0 -- -- 56
2019-12-12 06:00:00 10.1 16 Oeste 49 Oeste 0 -- -- 57
2019-12-12 05:00:00 9.5 11 Sudoeste 42 Sudoeste 0 -- -- 54
2019-12-12 04:00:00 9.8 10 Sudoeste 42 Sudoeste 0 -- -- 52
2019-12-12 03:00:00 9.7 11 Sudoeste 34 Sudoeste 0 -- -- 51
2019-12-12 02:00:00 10 7 Sudoeste 35 Sudoeste 0 -- -- 51
2019-12-12 01:00:00 10.2 10 Sudoeste 48 Noroeste 0 -- -- 51
2019-12-12 00:00:00 10.5 7 Sudoeste 45 Sudoeste 0 -- -- 51
2019-12-11 23:00:00 10.5 13 Sudoeste 45 Sudoeste 0 -- -- 54
2019-12-11 22:00:00 11.1 8 Noroeste 40 Oeste 0 -- -- 50
2019-12-11 21:00:00 11.9 12 Noroeste 64 Noroeste 0 -- -- 46
2019-12-11 20:00:00 11.7 19 Noroeste 68 Norte 0 -- -- 47
2019-12-11 19:00:00 11.7 25 Noroeste 59 Noroeste 0 -- -- 49
2019-12-11 18:00:00 12 16 Oeste 60 Sudoeste 0 -- -- 56
2019-12-11 17:00:00 12.5 22 Oeste 61 Sudoeste 0 -- -- 57
2019-12-11 16:00:00 12.1 10 Oeste 62 Noroeste 0 -- -- 59
2019-12-11 15:00:00 12.9 19 Oeste 59 Oeste 0 -- -- 58
2019-12-11 14:00:00 13.6 17 Oeste 56 Sudoeste 0 -- -- 42
2019-12-11 13:00:00 16 16 Oeste 53 Sudoeste 0 -- -- 35
2019-12-11 12:00:00 16.7 11 Oeste 34 Sudoeste 0 -- -- 35
2019-12-11 11:00:00 13.1 5 Este 12 Este 0 -- -- 73
2019-12-11 10:00:00 10.4 0 Calma 0 Calma 0 -- -- 75
2019-12-11 09:00:00 7.4 0 Calma 4 Norte 0 -- -- 76
2019-12-11 08:00:00 6.7 0 Calma 4 Nordeste 0 -- -- 79
2019-12-11 07:00:00 7.5 0 Calma 3 Sudoeste 0 -- -- 77
2019-12-11 06:00:00 7.9 0 Calma 3 Oeste 0 -- -- 76
2019-12-11 05:00:00 7.6 0 Calma 4 Noroeste 0 -- -- 83
2019-12-11 04:00:00 7 0 Calma 3 Nordeste 0 -- -- 86
2019-12-11 03:00:00 7.2 0 Calma 3 Norte 0 -- -- 84
2019-12-11 02:00:00 7.4 0 Calma 6 Sudoeste 0 -- -- 81
2019-12-11 01:00:00 7.7 0 Calma 4 Nordeste 0 -- -- 73
2019-12-11 00:00:00 8.8 2 Norte 9 Nordeste 0 -- -- 67
2019-12-10 23:00:00 9.1 3 Norte 8 Norte 0 -- -- 67
2019-12-10 22:00:00 10.1 3 Norte 6 Norte 0 -- -- 63
2019-12-10 21:00:00 10.5 0 Calma 11 Sudeste 0 -- -- 57
2019-12-10 20:00:00 12 3 Oeste 10 Nordeste 0 -- -- 63
2019-12-10 19:00:00 13.8 4 Norte 41 Noroeste 0 -- -- 48
2019-12-10 18:00:00 15 5 Noroeste 44 Norte 0 -- -- 37
2019-12-10 17:00:00 14.4 4 Norte 49 Noroeste 0 -- -- 44
2019-12-10 16:00:00 13.9 3 Este 30 Este 0 -- -- 53
2019-12-10 15:00:00 14.6 4 Noroeste 56 Noroeste 0 -- -- 49
2019-12-10 14:00:00 14.5 9 Noroeste 34 Noroeste 0 -- -- 45
2019-12-10 13:00:00 14.6 11 Norte 58 Norte 0 -- -- 46
2019-12-10 12:00:00 12.7 21 Noroeste 56 Noroeste 0 -- -- 49
2019-12-10 11:00:00 12.1 29 Noroeste 63 Noroeste 0 -- -- 50
2019-12-10 10:00:00 11.2 25 Noroeste 75 Noroeste 0 -- -- 53
2019-12-10 09:00:00 10.8 24 Noroeste 57 Noroeste 0 -- -- 54
2019-12-10 08:00:00 10.7 18 Noroeste 45 Sudoeste 0 -- -- 54
2019-12-10 07:00:00 10.7 18 Noroeste 45 Noroeste 0 -- -- 54
2019-12-10 06:00:00 10.6 4 Noroeste 35 Noroeste 0 -- -- 54
2019-12-10 05:00:00 10.7 3 Noroeste 48 Oeste 0 -- -- 53
2019-12-10 04:00:00 11.1 10 Oeste 60 Oeste 0 -- -- 52
2019-12-10 03:00:00 11.3 21 Oeste 60 Noroeste 0 -- -- 52
2019-12-10 02:00:00 11.5 18 Oeste 87 Oeste 0 -- -- 50
2019-12-10 01:00:00 11.8 35 Noroeste 90 Oeste 0 -- -- 51
2019-12-10 00:00:00 11.8 31 Oeste 92 Sudoeste 0 -- -- 51
2019-12-09 23:00:00 12 34 Noroeste 79 Noroeste 0 -- -- 50
2019-12-09 22:00:00 12 35 Oeste 89 Oeste 0 -- -- 50
2019-12-09 21:00:00 12.4 32 Oeste 90 Oeste 0 -- -- 50
2019-12-09 20:00:00 12.7 28 Oeste 73 Oeste 0 -- -- 49
2019-12-09 19:00:00 13.4 28 Oeste 67 Oeste 0 -- -- 45
2019-12-09 18:00:00 13.4 19 Oeste 66 Oeste 0 -- -- 46
2019-12-09 17:00:00 13.9 20 Oeste 55 Sudoeste 0 -- -- 47
2019-12-09 16:00:00 14.5 14 Oeste 51 Noroeste 0 -- -- 46
2019-12-09 15:00:00 14.8 23 Noroeste 64 Noroeste 0 -- -- 45
2019-12-09 14:00:00 15 20 Noroeste 65 Sudoeste 0 -- -- 44
2019-12-09 13:00:00 15.1 19 Noroeste 56 Oeste 0 -- -- 44
2019-12-09 12:00:00 14.2 19 Noroeste 69 Oeste 0 -- -- 45
2019-12-09 11:00:00 13.6 19 Oeste 63 Oeste 0 -- -- 47
2019-12-09 10:00:00 13.5 18 Oeste 60 Oeste 0 -- -- 46
2019-12-09 09:00:00 13 23 Noroeste 74 Noroeste 0 -- -- 47
2019-12-09 08:00:00 12.1 26 Oeste 64 Oeste 0 -- -- 54
2019-12-09 07:00:00 12.4 19 Noroeste 55 Noroeste 0 -- -- 53
2019-12-09 06:00:00 11.8 18 Oeste 64 Oeste 0 -- -- 57
2019-12-09 05:00:00 11.9 23 Oeste 59 Sudoeste 0 -- -- 56
2019-12-09 04:00:00 12.2 26 Oeste 75 Noroeste 0 -- -- 58
2019-12-09 03:00:00 12.9 33 Noroeste 82 Noroeste 0 -- -- 55
2019-12-09 02:00:00 13.1 26 Noroeste 77 Noroeste 0 -- -- 58
2019-12-09 01:00:00 13.6 6 Este 48 Norte 0 -- -- 58
2019-12-09 00:00:00 13.5 11 Noroeste 76 Noroeste 0 -- -- 62
2019-12-08 23:00:00 13.6 24 Noroeste 62 Oeste 0 -- -- 66
2019-12-08 22:00:00 13 13 Oeste 34 Noroeste 0 -- -- 69
2019-12-08 21:00:00 13.2 11 Oeste 31 Sudoeste 0 -- -- 66
2019-12-08 20:00:00 12.9 3 Este 15 Sudoeste 0 -- -- 66
2019-12-08 19:00:00 12.1 3 Sudoeste 17 Sudoeste 0 -- -- 76
2019-12-08 18:00:00 11.8 0 Calma 8 Oeste 0 -- -- 74
2019-12-08 17:00:00 13.5 5 Sudoeste 15 Sudoeste 0 -- -- 65
2019-12-08 16:00:00 13.7 5 Sur 18 Sur 0 -- -- 70
2019-12-08 15:00:00 14.1 5 Sur 23 Sur 0 -- -- 66
2019-12-08 14:00:00 16.8 7 Oeste 26 Oeste 0 -- -- 44
2019-12-08 13:00:00 16.2 8 Sudoeste 21 Sudoeste 0 -- -- 44
2019-12-08 12:00:00 15.4 8 Oeste 27 Oeste 0 -- -- 45
2019-12-08 11:00:00 14.6 10 Oeste 30 Oeste 0 -- -- 48
2019-12-08 10:00:00 13.7 14 Oeste 23 Oeste 0 -- -- 52
2019-12-08 09:00:00 11 3 Sudoeste 14 Sudoeste 0 -- -- 64
2019-12-08 08:00:00 10.3 2 Sudoeste 20 Sudoeste 0 -- -- 67
2019-12-08 07:00:00 11.2 8 Sudoeste 22 Sudoeste 0 -- -- 64
2019-12-08 06:00:00 11.6 11 Sudoeste 18 Oeste 0 -- -- 64
2019-12-08 05:00:00 10.9 8 Sudoeste 14 Sudoeste 0 -- -- 70
2019-12-08 04:00:00 8.3 0 Calma 8 Oeste 0 -- -- 85
2019-12-08 03:00:00 7.7 0 Calma 4 Oeste 0 -- -- 87
2019-12-08 02:00:00 8.1 0 Calma 8 Norte 0 -- -- 85
2019-12-08 01:00:00 8.6 0 Calma 5 Sudoeste 0 -- -- 80
2019-12-08 00:00:00 9.2 2 Norte 10 Sur 0 -- -- 79
2019-12-07 23:00:00 9.8 3 Este 12 Sur 0 -- -- 78
2019-12-07 22:00:00 9.3 2 Norte 5 Noroeste 0 -- -- 79
2019-12-07 21:00:00 10 0 Calma 7 Sudeste 0 -- -- 75
2019-12-07 20:00:00 10.4 2 Sudeste 14 Noroeste 0 -- -- 67
2019-12-07 19:00:00 12.2 4 Sudoeste 15 Sudoeste 0 -- -- 59
2019-12-07 18:00:00 11.8 0 Calma 15 Oeste 0 -- -- 63
2019-12-07 17:00:00 13.5 2 Sur 14 Noroeste 0 -- -- 58
2019-12-07 16:00:00 14.5 0 Calma 15 Norte 0 -- -- 56
2019-12-07 15:00:00 14.4 4 Nordeste 14 Este 0 -- -- 64
2019-12-07 14:00:00 15.5 2 Sudoeste 17 Norte 0 -- -- 56
2019-12-07 13:00:00 15.4 5 Sudeste 14 Sudeste 0 -- -- 62
2019-12-07 12:00:00 14.7 4 Sudeste 10 Nordeste 0 -- -- 67
2019-12-07 11:00:00 13.9 0 Calma 13 Este 0 -- -- 72
2019-12-07 10:00:00 10.8 0 Calma 5 Nordeste 0 -- -- 94
2019-12-07 09:00:00 9.2 2 Sur 5 Norte 0 -- -- 94
2019-12-07 08:00:00 8.1 0 Calma 5 Noroeste 0 -- -- 94
2019-12-07 07:00:00 8.3 0 Calma 5 Noroeste 0 -- -- 94
2019-12-07 06:00:00 8.3 0 Calma 6 Sudoeste 0 -- -- 94
2019-12-07 05:00:00 8.1 0 Calma 6 Sudoeste 0 -- -- 94
2019-12-07 04:00:00 8.3 0 Calma 4 Norte 0 -- -- 94
2019-12-07 03:00:00 8.2 0 Calma 4 Sudoeste 0 -- -- 93
2019-12-07 02:00:00 8.2 0 Calma 4 Norte 0 -- -- 92
2019-12-07 01:00:00 8.2 0 Calma 6 Norte 0 -- -- 91
2019-12-07 00:00:00 8.5 2 Norte 3 Oeste 0 -- -- 91
2019-12-06 23:00:00 8.7 0 Calma 8 Norte 0 -- -- 90
2019-12-06 22:00:00 9.1 2 Noroeste 6 Sur 0 -- -- 89
2019-12-06 21:00:00 9.6 0 Calma 6 Noroeste 0 -- -- 88
2019-12-06 20:00:00 9.8 0 Calma 3 Nordeste 0 -- -- 87
2019-12-06 19:00:00 10.7 0 Calma 6 Noroeste 0 -- -- 85
2019-12-06 18:00:00 11.8 0 Calma 5 Norte 0 -- -- 81
2019-12-06 17:00:00 13.3 0 Calma 5 Este 0 -- -- 74
2019-12-06 16:00:00 14.2 3 Sudeste 8 Este 0 -- -- 68
2019-12-06 15:00:00 15 4 Sudeste 9 Sudeste 0 -- -- 64
2019-12-06 14:00:00 15.8 5 Sudeste 12 Este 0 -- -- 58
2019-12-06 13:00:00 16.2 5 Sudeste 11 Este 0 -- -- 56
2019-12-06 12:00:00 15.3 5 Este 9 Este 0 -- -- 59
2019-12-06 11:00:00 15.2 5 Sudeste 8 Sur 0 -- -- 61
2019-12-06 10:00:00 12.9 0 Calma 4 Este 0 -- -- 78
2019-12-06 09:00:00 10.6 0 Calma 9 Oeste 0 -- -- 87
2019-12-06 08:00:00 10.8 0 Calma 13 Norte 0.2 -- -- 86
2019-12-06 07:00:00 10.9 4 Oeste 10 Sudoeste 0.6 -- -- 87
2019-12-06 06:00:00 11.1 3 Norte 9 Nordeste 0 -- -- 86
2019-12-06 05:00:00 11.5 0 Calma 4 Norte 0 -- -- 82
2019-12-06 04:00:00 11.7 0 Calma 6 Norte 0 -- -- 79
2019-12-06 03:00:00 12.2 2 Nordeste 10 Norte 0 -- -- 75
2019-12-06 02:00:00 12.2 4 Norte 10 Norte 0 -- -- 75
2019-12-06 01:00:00 12.3 4 Norte 10 Norte 0 -- -- 75
2019-12-06 00:00:00 12.1 3 Norte 15 Norte 0 -- -- 77
2019-12-05 23:00:00 11.9 5 Norte 14 Norte 0 -- -- 78
2019-12-05 22:00:00 11.4 4 Norte 19 Nordeste 0 -- -- 82
2019-12-05 21:00:00 11.3 5 Norte 20 Nordeste 0 -- -- 87
2019-12-05 20:00:00 12 5 Norte 15 Nordeste 0.1 -- -- 78
2019-12-05 19:00:00 11.3 7 Norte 27 Noroeste 0.2 -- -- 84
2019-12-05 18:00:00 11.1 7 Norte 24 Noroeste 1.8 -- -- 88
2019-12-05 17:00:00 11.3 10 Norte 30 Noroeste 1.4 -- -- 83
2019-12-05 16:00:00 11.5 9 Noroeste 27 Norte 4 -- -- 81
2019-12-05 15:00:00 11.7 4 Noroeste 17 Norte 0.8 -- -- 83
2019-12-05 14:00:00 11.8 8 Noroeste 22 Norte 0.9 -- -- 82
2019-12-05 13:00:00 12.3 6 Norte 19 Norte 0.3 -- -- 78
2019-12-05 12:00:00 13 9 Norte 19 Nordeste 0.3 -- -- 74
2019-12-05 11:00:00 12.8 6 Norte 19 Norte 0.1 -- -- 74
2019-12-05 10:00:00 13.3 8 Norte 22 Norte 0 -- -- 65
2019-12-05 09:00:00 12.9 9 Norte 24 Norte 0 -- -- 65
2019-12-05 08:00:00 12.8 7 Norte 19 Norte 0 -- -- 66
2019-12-05 07:00:00 12.5 5 Norte 17 Nordeste 0 -- -- 69
2019-12-05 06:00:00 12.6 8 Nordeste 21 Nordeste 0 -- -- 68
2019-12-05 05:00:00 12.2 8 Nordeste 22 Nordeste 0 -- -- 70
2019-12-05 04:00:00 12 9 Norte 26 Norte 0.2 -- -- 71
2019-12-05 03:00:00 13.1 9 Norte 23 Nordeste 0 -- -- 58
2019-12-05 02:00:00 12.3 8 Nordeste 24 Norte 0 -- -- 62
2019-12-05 01:00:00 12.6 6 Nordeste 23 Norte 0 -- -- 62
2019-12-05 00:00:00 12.2 7 Nordeste 18 Norte 0 -- -- 66
2019-12-04 23:00:00 12.2 9 Nordeste 23 Nordeste 0 -- -- 67
2019-12-04 22:00:00 12.1 8 Nordeste 26 Norte 0 -- -- 67
2019-12-04 21:00:00 12.3 8 Nordeste 21 Nordeste 0 -- -- 68
2019-12-04 20:00:00 12.7 9 Nordeste 23 Nordeste 0 -- -- 69
2019-12-04 19:00:00 12 6 Este 23 Nordeste 0 -- -- 73
2019-12-04 18:00:00 12.2 11 Nordeste 34 Nordeste 0 -- -- 69
2019-12-04 17:00:00 12 14 Norte 46 Nordeste 0.1 -- -- 75
2019-12-04 16:00:00 11.5 13 Norte 37 Norte 1.4 -- -- 82
2019-12-04 15:00:00 11.1 10 Norte 30 Nordeste 2.9 -- -- 90
2019-12-04 14:00:00 11.2 11 Nordeste 25 Nordeste 0.8 -- -- 89
2019-12-04 13:00:00 10.1 4 Norte 32 Norte 8.4 -- -- 94
2019-12-04 12:00:00 10 15 Nordeste 50 Nordeste 7 -- -- 92
2019-12-04 11:00:00 10.8 14 Norte 42 Nordeste 3.1 -- -- 92
2019-12-04 10:00:00 10.6 11 Norte 31 Nordeste 3.1 -- -- 91
2019-12-04 09:00:00 10.8 11 Norte 41 Nordeste 4.6 -- -- 90
2019-12-04 08:00:00 11.6 10 Nordeste 34 Nordeste 0.6 -- -- 80
2019-12-04 07:00:00 10.8 14 Norte 35 Norte 3.6 -- -- 86
2019-12-04 06:00:00 13.2 10 Nordeste 31 Nordeste 0 -- -- 59
2019-12-04 05:00:00 13 9 Norte 34 Norte 0 -- -- 58
2019-12-04 04:00:00 13.1 11 Norte 35 Norte 0 -- -- 58
2019-12-04 03:00:00 13 10 Norte 41 Norte 0 -- -- 57
2019-12-04 02:00:00 13 13 Norte 37 Noroeste 0 -- -- 58
2019-12-04 01:00:00 12.7 17 Norte 35 Norte 0.1 -- -- 60
2019-12-04 00:00:00 12.5 10 Norte 31 Norte 0 -- -- 60
2019-12-03 23:00:00 13.1 14 Norte 30 Norte 0 -- -- 57
2019-12-03 22:00:00 12.9 12 Norte 31 Norte 0 -- -- 59
2019-12-03 21:00:00 12.6 10 Norte 25 Norte 0 -- -- 59
2019-12-03 20:00:00 12.5 9 Norte 23 Norte 0 -- -- 60
2019-12-03 19:00:00 12.1 9 Norte 31 Norte 0 -- -- 60
2019-12-03 18:00:00 11.7 8 Norte 30 Norte 0 -- -- 61
2019-12-03 17:00:00 11.3 15 Norte 31 Noroeste 0.3 -- -- 61
2019-12-03 16:00:00 10 12 Norte 24 Norte 0.2 -- -- 64
2019-12-03 15:00:00 11.5 9 Norte 23 Norte 0 -- -- 52
2019-12-03 14:00:00 9.7 8 Noroeste 20 Noroeste 0.2 -- -- 57
2019-12-03 13:00:00 9.9 10 Noroeste 26 Noroeste 0 -- -- 53
2019-12-03 12:00:00 9.7 14 Noroeste 32 Oeste 0 -- -- 53
2019-12-03 11:00:00 9.1 13 Noroeste 35 Oeste 0 -- -- 54
2019-12-03 10:00:00 8 16 Noroeste 41 Noroeste 0 -- -- 56
2019-12-03 09:00:00 7.9 18 Noroeste 45 Noroeste 0 -- -- 58
2019-12-03 08:00:00 7.4 23 Noroeste 48 Noroeste 0 -- -- 58
2019-12-03 07:00:00 7.3 23 Noroeste 50 Oeste 0 -- -- 59
2019-12-03 06:00:00 7.7 21 Noroeste 56 Noroeste 0 -- -- 58
2019-12-03 05:00:00 7.5 20 Noroeste 48 Noroeste 0 -- -- 57
2019-12-03 04:00:00 8 20 Noroeste 46 Noroeste 0 -- -- 57
2019-12-03 03:00:00 8.3 21 Noroeste 49 Noroeste 0 -- -- 57
2019-12-03 02:00:00 8.9 21 Noroeste 47 Noroeste 0 -- -- 58
2019-12-03 01:00:00 9.5 15 Noroeste 35 Noroeste 0 -- -- 58
2019-12-03 00:00:00 10.1 17 Noroeste 36 Noroeste 0 -- -- 58
2019-12-02 23:00:00 11.6 13 Noroeste 35 Norte 0 -- -- 57
2019-12-02 22:00:00 12.3 10 Noroeste 31 Noroeste 0 -- -- 56
2019-12-02 21:00:00 12.6 12 Noroeste 39 Noroeste 0 -- -- 55
2019-12-02 20:00:00 12.5 11 Norte 33 Noroeste 0 -- -- 58
2019-12-02 19:00:00 12 5 Oeste 20 Oeste 0 -- -- 62
2019-12-02 18:00:00 10.4 0 Calma 4 Sur 0 -- -- 70
2019-12-02 17:00:00 12.3 2 Sudeste 13 Sudoeste 0 -- -- 62
2019-12-02 16:00:00 12.8 4 Este 11 Este 0 -- -- 61
2019-12-02 15:00:00 14.5 6 Sudeste 18 Sudeste 0 -- -- 54
2019-12-02 14:00:00 15.4 5 Este 12 Este 0 -- -- 52
2019-12-02 13:00:00 15.4 5 Sudeste 12 Sudeste 0 -- -- 52
2019-12-02 12:00:00 14.9 5 Sudeste 13 Noroeste 0 -- -- 52
2019-12-02 11:00:00 13.1 6 Oeste 17 Oeste 0 -- -- 56
2019-12-02 10:00:00 12 8 Oeste 18 Oeste 0 -- -- 59
2019-12-02 09:00:00 11.2 10 Oeste 24 Oeste 0 -- -- 61
2019-12-02 08:00:00 12 3 Noroeste 12 Oeste 0 -- -- 57
2019-12-02 07:00:00 12.1 3 Noroeste 8 Noroeste 0 -- -- 57
2019-12-02 06:00:00 12.1 3 Norte 9 Norte 0 -- -- 59
2019-12-02 05:00:00 12.4 4 Norte 14 Norte 0 -- -- 57
2019-12-02 04:00:00 12.2 6 Norte 18 Norte 0 -- -- 66
2019-12-02 03:00:00 11.6 5 Nordeste 11 Noroeste 0 -- -- 64
2019-12-02 02:00:00 11.6 4 Nordeste 10 Nordeste 0 -- -- 66
2019-12-02 01:00:00 10.8 3 Norte 12 Norte 0 -- -- 61
2019-12-02 00:00:00 9.2 2 Nordeste 10 Noroeste 0 -- -- 60
2019-12-01 23:00:00 8.9 0 Calma 6 Este 0 -- -- 64
2019-12-01 22:00:00 10.9 4 Sudeste 11 Noroeste 0 -- -- 52
2019-12-01 21:00:00 12.9 3 Noroeste 12 Oeste 0 -- -- 47
2019-12-01 20:00:00 11.5 0 Calma 9 Noroeste 0 -- -- 53
2019-12-01 19:00:00 12 4 Noroeste 10 Noroeste 0 -- -- 51
2019-12-01 18:00:00 11.6 0 Calma 7 Sudoeste 0 -- -- 55
2019-12-01 17:00:00 13.7 0 Calma 10 Sur 0 -- -- 50
2019-12-01 16:00:00 15.1 5 Norte 27 Noroeste 0 -- -- 43
2019-12-01 15:00:00 14.1 10 Noroeste 30 Noroeste 0 -- -- 46
2019-12-01 14:00:00 14.4 15 Noroeste 28 Noroeste 0 -- -- 44
2019-12-01 13:00:00 15.5 4 Este 18 Noroeste 0 -- -- 45
2019-12-01 12:00:00 14.3 9 Noroeste 30 Noroeste 0 -- -- 47
2019-12-01 11:00:00 13.6 16 Noroeste 29 Noroeste 0 -- -- 48
2019-12-01 10:00:00 13.5 0 Calma 17 Sudoeste 0 -- -- 50
2019-12-01 09:00:00 13.1 4 Oeste 9 Sudoeste 0 -- -- 51
2019-12-01 08:00:00 12.5 0 Calma 17 Noroeste 0 -- -- 57
2019-12-01 07:00:00 13.2 2 Noroeste 18 Noroeste 0 -- -- 55
2019-12-01 06:00:00 14.2 5 Norte 36 Noroeste 0 -- -- 50
2019-12-01 05:00:00 14.7 19 Noroeste 56 Noroeste 0 -- -- 43
2019-12-01 04:00:00 14.8 30 Noroeste 68 Noroeste 0 -- -- 45
2019-12-01 03:00:00 13.9 30 Noroeste 67 Noroeste 0 -- -- 49
2019-12-01 02:00:00 14.1 32 Noroeste 67 Noroeste 0 -- -- 50
2019-12-01 01:00:00 13.9 4 Oeste 28 Sudoeste 0 -- -- 75
2019-12-01 00:00:00 10.8 0 Calma 7 Oeste 0 -- -- 93
2019-11-30 23:00:00 10.2 0 Calma 6 Norte 0 -- -- 93
2019-11-30 22:00:00 10.9 3 Nordeste 8 Nordeste 0 -- -- 93
2019-11-30 21:00:00 10.9 2 Norte 6 Nordeste 0 -- -- 92
2019-11-30 20:00:00 11.7 3 Norte 8 Norte 0 -- -- 91
2019-11-30 19:00:00 11.9 2 Nordeste 8 Oeste 0 -- -- 87
2019-11-30 18:00:00 13 3 Oeste 11 Sur 0 -- -- 86
2019-11-30 17:00:00 13.7 4 Sur 10 Sur 0 -- -- 86
2019-11-30 16:00:00 14.1 4 Sur 9 Sudeste 0 -- -- 83
2019-11-30 15:00:00 15 4 Sudeste 9 Sudeste 0 -- -- 78
2019-11-30 14:00:00 16.1 4 Sudeste 11 Sudeste 0 -- -- 70
2019-11-30 13:00:00 16.3 4 Sudeste 9 Sudeste 0 -- -- 67
2019-11-30 12:00:00 15.8 4 Sudeste 10 Este 0 -- -- 68
2019-11-30 11:00:00 14.9 3 Sudeste 10 Este 0 -- -- 75
2019-11-30 10:00:00 13.2 4 Este 8 Este 0 -- -- 87
2019-11-30 09:00:00 10.8 0 Calma 3 Oeste 0 -- -- 93
2019-11-30 08:00:00 10 0 Calma 4 Sudoeste 0 -- -- 92
2019-11-30 07:00:00 10.3 0 Calma 2 Oeste 0 -- -- 91
2019-11-30 06:00:00 10.8 0 Calma 8 Nordeste 0 -- -- 91
2019-11-30 05:00:00 11 3 Norte 7 Nordeste 0 -- -- 91
2019-11-30 04:00:00 10.6 0 Calma 6 Norte 0 -- -- 90
2019-11-30 03:00:00 11.1 2 Nordeste 5 Norte 0 -- -- 88
2019-11-30 02:00:00 11.2 0 Calma 5 Norte 0 -- -- 86
2019-11-30 01:00:00 12.5 3 Nordeste 9 Nordeste 0 -- -- 81
2019-11-30 00:00:00 13.3 3 Norte 12 Norte 0 -- -- 81
2019-11-29 23:00:00 13.8 4 Norte 10 Norte 0 -- -- 75
2019-11-29 22:00:00 15.7 0 Calma 22 Noroeste 0 -- -- 59
2019-11-29 21:00:00 17.2 13 Noroeste 24 Noroeste 0 -- -- 54
2019-11-29 20:00:00 17.2 6 Noroeste 25 Sudoeste 0 -- -- 55
2019-11-29 19:00:00 15.9 2 Sur 14 Sudoeste 0 -- -- 58
2019-11-29 18:00:00 16.2 4 Sur 21 Sudoeste 0 -- -- 57
2019-11-29 17:00:00 18.1 9 Sudoeste 26 Sudoeste 0 -- -- 52
2019-11-29 16:00:00 18.6 9 Sudoeste 29 Sudoeste 0 -- -- 51
2019-11-29 15:00:00 18.5 7 Sudoeste 23 Sudoeste 0 -- -- 51
2019-11-29 14:00:00 19.1 8 Sudoeste 32 Sur 0 -- -- 51
2019-11-29 13:00:00 20.5 7 Sur 31 Oeste 0 -- -- 49
2019-11-29 12:00:00 19 5 Sur 26 Sudoeste 0 -- -- 53
2019-11-29 11:00:00 18.2 8 Sur 23 Sur 0 -- -- 56
2019-11-29 10:00:00 16.9 4 Sudoeste 23 Oeste 0 -- -- 59
2019-11-29 09:00:00 15.7 2 Este 15 Sudeste 0 -- -- 61
2019-11-29 08:00:00 16.8 3 Sur 24 Sudeste 0 -- -- 57
2019-11-29 07:00:00 16.6 3 Norte 34 Nordeste 0 -- -- 56
2019-11-29 06:00:00 15.8 0 Calma 26 Sudeste 0 -- -- 55
2019-11-29 05:00:00 16 3 Sur 21 Sudeste 0 -- -- 52
2019-11-29 04:00:00 16.4 6 Sudoeste 20 Sudoeste 0 -- -- 49
2019-11-29 03:00:00 16.9 6 Sudoeste 24 Noroeste 0 -- -- 47
2019-11-29 02:00:00 17.9 2 Oeste 35 Sudoeste 0 -- -- 45
2019-11-29 01:00:00 17.6 11 Oeste 27 Sudoeste 0 -- -- 46
2019-11-29 00:00:00 17.4 7 Sudoeste 21 Oeste 0 -- -- 44
2019-11-28 23:00:00 17.6 8 Oeste 28 Oeste 0 -- -- 42
2019-11-28 22:00:00 17.5 10 Oeste 34 Oeste 0 -- -- 44
2019-11-28 21:00:00 14.4 0 Calma 8 Este 0 -- -- 78
2019-11-28 20:00:00 14.5 2 Sur 8 Noroeste 0 -- -- 69
2019-11-28 19:00:00 15 0 Calma 7 Oeste 0 -- -- 64
2019-11-28 18:00:00 15.6 4 Sudoeste 11 Sudoeste 0 -- -- 68
2019-11-28 17:00:00 17.3 2 Sur 13 Oeste 0 -- -- 54
2019-11-28 16:00:00 17.1 2 Sudoeste 10 Sudeste 0 -- -- 58
2019-11-28 15:00:00 18.1 0 Calma 20 Sur 0 -- -- 55
2019-11-28 14:00:00 20.6 7 Sudoeste 30 Sudoeste 0 -- -- 41
2019-11-28 13:00:00 19.6 8 Sudoeste 28 Sudoeste 0 -- -- 42
2019-11-28 12:00:00 18.8 13 Sudoeste 29 Sudoeste 0 -- -- 43
2019-11-28 11:00:00 18.3 6 Sur 28 Sudoeste 0 -- -- 44
2019-11-28 10:00:00 16.7 8 Sur 29 Sur 0 -- -- 46
2019-11-28 09:00:00 15.1 9 Sudoeste 27 Sudoeste 0 -- -- 48
2019-11-28 08:00:00 14.9 4 Oeste 28 Sudoeste 0 -- -- 48
2019-11-28 07:00:00 15 6 Sudoeste 37 Sudoeste 0 -- -- 46
2019-11-28 06:00:00 14.7 9 Sudoeste 31 Oeste 0 -- -- 47
2019-11-28 05:00:00 16.1 15 Oeste 54 Sudoeste 0 -- -- 45
2019-11-28 04:00:00 16.1 15 Oeste 37 Noroeste 0 -- -- 45
2019-11-28 03:00:00 15.6 9 Oeste 33 Oeste 0 -- -- 45
2019-11-28 02:00:00 15.1 8 Sudoeste 27 Sudoeste 0 -- -- 45
2019-11-28 01:00:00 14.7 5 Sudoeste 25 Sudoeste 0 -- -- 45
2019-11-28 00:00:00 15.5 5 Sudoeste 21 Oeste 0 -- -- 44
2019-11-27 23:00:00 16.6 6 Oeste 21 Oeste 0 -- -- 43
2019-11-27 22:00:00 15.5 2 Sudoeste 12 Sur 0 -- -- 45
2019-11-27 21:00:00 15.4 4 Sur 19 Sur 0 -- -- 44
2019-11-27 20:00:00 17.7 12 Noroeste 32 Sudoeste 0 -- -- 39
2019-11-27 19:00:00 17.6 6 Noroeste 48 Noroeste 0 -- -- 40
2019-11-27 18:00:00 17.9 15 Noroeste 46 Norte 0 -- -- 39
2019-11-27 17:00:00 18 5 Sur 25 Oeste 0 -- -- 39
2019-11-27 16:00:00 18.6 0 Calma 27 Noroeste 0 -- -- 38
2019-11-27 15:00:00 19 11 Sudoeste 34 Sudoeste 0 -- -- 37
2019-11-27 14:00:00 18.8 13 Sudoeste 28 Sudoeste 0 -- -- 37
2019-11-27 06:00:00 17.4 8 Sudoeste 28 Sudoeste 0 -- -- 45
2019-11-27 05:00:00 18.2 11 Sudoeste 35 Sudoeste 0 -- -- 43
2019-11-27 04:00:00 19.5 14 Sudoeste 43 Sudoeste 0 -- -- 41
2019-11-27 03:00:00 18.5 14 Sudoeste 31 Sudoeste 0 -- -- 50
2019-11-27 02:00:00 11.6 6 Sudoeste 10 Sudoeste 0 -- -- 90
2019-11-27 01:00:00 11.4 3 Sudoeste 9 Sudoeste 0 -- -- 87
2019-11-27 00:00:00 12.1 0 Calma 8 Sudoeste 0.1 -- -- 83
2019-11-26 23:00:00 12.3 0 Calma 5 Noroeste 0 -- -- 76
2019-11-26 22:00:00 12.1 0 Calma 9 Nordeste 0 -- -- 80
2019-11-26 21:00:00 12 0 Calma 8 Sudoeste 0 -- -- 83
2019-11-26 20:00:00 12.5 0 Calma 8 Sudoeste 0 -- -- 80
2019-11-26 19:00:00 13.6 3 Sudoeste 12 Sudoeste 0 -- -- 75
2019-11-26 18:00:00 14.4 3 Sur 13 Sudoeste 0 -- -- 74
2019-11-26 17:00:00 16 5 Sur 17 Sur 0 -- -- 62
2019-11-26 16:00:00 17.2 4 Sur 15 Sur 0 -- -- 55
2019-11-26 15:00:00 18.1 5 Sur 17 Sur 0 -- -- 48
2019-11-26 14:00:00 19.4 5 Sur 17 Sur 0 -- -- 49
2019-11-26 13:00:00 18.7 7 Sur 19 Sur 0 -- -- 53
2019-11-26 12:00:00 19.7 5 Sur 19 Sur 0 -- -- 47
2019-11-26 11:00:00 18.1 4 Sur 16 Sur 0 -- -- 53
2019-11-26 10:00:00 17.1 2 Sur 21 Noroeste 0 -- -- 50
2019-11-26 09:00:00 14.8 4 Sudoeste 18 Sudoeste 0 -- -- 56
2019-11-26 08:00:00 15.9 8 Sudoeste 25 Sudoeste 0 -- -- 53
2019-11-26 07:00:00 13.1 6 Sudoeste 18 Sudoeste 0 -- -- 63
2019-11-26 06:00:00 13 8 Sudoeste 16 Sudoeste 0 -- -- 64
2019-11-26 05:00:00 10.9 3 Este 15 Sudoeste 0 -- -- 86
2019-11-26 04:00:00 10.3 0 Calma 7 Sur 0 -- -- 87
2019-11-26 03:00:00 10.5 0 Calma 4 Norte 0 -- -- 88
2019-11-26 02:00:00 10.7 0 Calma 4 Sudoeste 0 -- -- 86
2019-11-26 01:00:00 11 0 Calma 6 Sur 0 -- -- 86
2019-11-26 00:00:00 11.7 0 Calma 5 Sur 0 -- -- 85
2019-11-25 23:00:00 12.3 0 Calma 5 Sudeste 0 -- -- 84
2019-11-25 22:00:00 12.4 0 Calma 9 Este 0 -- -- 83
2019-11-25 21:00:00 12.5 3 Norte 8 Noroeste 0 -- -- 81
2019-11-25 20:00:00 13.4 0 Calma 8 Este 0 -- -- 75
2019-11-25 19:00:00 15 0 Calma 20 Sudeste 0 -- -- 60
2019-11-25 18:00:00 17.8 8 Oeste 24 Sudoeste 0 -- -- 50
2019-11-25 17:00:00 17.9 3 Sudoeste 15 Noroeste 0 -- -- 49
2019-11-25 16:00:00 18.8 5 Sudoeste 29 Oeste 0 -- -- 48
2019-11-25 15:00:00 19 11 Oeste 32 Sudoeste 0 -- -- 49
2019-11-25 14:00:00 18.5 6 Sudeste 35 Sudoeste 0 -- -- 48
2019-11-25 13:00:00 18.1 9 Este 36 Este 0 -- -- 49
2019-11-25 12:00:00 17.3 10 Sudeste 36 Sudoeste 0 -- -- 50
2019-11-25 11:00:00 16.5 4 Sudoeste 34 Sudoeste 0 -- -- 51
2019-11-25 10:00:00 14.5 9 Sur 49 Sudoeste 0 -- -- 56
2019-11-25 09:00:00 13.6 14 Sudoeste 34 Oeste 0 -- -- 55
2019-11-25 08:00:00 14.3 14 Oeste 36 Noroeste 0 -- -- 58
2019-11-25 07:00:00 12.8 11 Oeste 26 Noroeste 0 -- -- 57
2019-11-25 06:00:00 11.7 3 Sudoeste 18 Noroeste 0 -- -- 55
2019-11-25 05:00:00 11.3 4 Sudoeste 21 Oeste 0 -- -- 54
2019-11-25 04:00:00 11.6 5 Oeste 20 Oeste 0 -- -- 52
2019-11-25 03:00:00 12 4 Oeste 27 Sudoeste 0 -- -- 50
2019-11-25 02:00:00 12 4 Sur 30 Oeste 0 -- -- 47
2019-11-25 01:00:00 12.8 11 Oeste 51 Oeste 0 -- -- 45
2019-11-25 00:00:00 12.7 5 Nordeste 46 Noroeste 0 -- -- 45
2019-11-24 23:00:00 13 22 Noroeste 58 Noroeste 0 -- -- 43
2019-11-24 22:00:00 13.2 27 Noroeste 57 Noroeste 0 -- -- 43
2019-11-24 21:00:00 13 27 Noroeste 57 Noroeste 0 -- -- 45
2019-11-24 20:00:00 13.2 29 Noroeste 63 Noroeste 0 -- -- 45
2019-11-24 19:00:00 13.3 30 Noroeste 64 Noroeste 0 -- -- 45
2019-11-24 18:00:00 13.7 33 Noroeste 66 Noroeste 0 -- -- 45
2019-11-24 17:00:00 13.9 29 Noroeste 70 Noroeste 0 -- -- 45
2019-11-24 16:00:00 14.5 29 Noroeste 73 Sudoeste 0 -- -- 43
2019-11-24 15:00:00 14.7 26 Noroeste 64 Noroeste 0 -- -- 43
2019-11-24 14:00:00 14.3 28 Noroeste 78 Noroeste 0 -- -- 44
2019-11-24 13:00:00 14.2 26 Noroeste 72 Noroeste 0 -- -- 45
2019-11-24 12:00:00 13 26 Noroeste 76 Noroeste 0 -- -- 47
2019-11-24 11:00:00 12.1 46 Noroeste 86 Noroeste 0 -- -- 48
2019-11-24 10:00:00 11.6 36 Noroeste 87 Noroeste 0 -- -- 48
2019-11-24 09:00:00 10.9 31 Noroeste 69 Noroeste 0 -- -- 50
2019-11-24 08:00:00 10.7 30 Noroeste 78 Noroeste 0 -- -- 50
2019-11-24 07:00:00 10.9 27 Noroeste 73 Oeste 0 -- -- 49
2019-11-24 06:00:00 11.1 28 Noroeste 77 Oeste 0 -- -- 49
2019-11-24 05:00:00 11.1 30 Noroeste 84 Oeste 0 -- -- 48
2019-11-24 04:00:00 11.4 24 Noroeste 68 Noroeste 0 -- -- 48
2019-11-24 03:00:00 12 25 Noroeste 83 Norte 0 -- -- 46
2019-11-24 02:00:00 11.7 28 Noroeste 71 Oeste 0 -- -- 47
2019-11-24 01:00:00 12 29 Oeste 82 Oeste 0 -- -- 47
2019-11-24 00:00:00 11.9 27 Noroeste 66 Noroeste 0 -- -- 47
2019-11-23 23:00:00 11.8 28 Oeste 82 Oeste 0 -- -- 47
2019-11-23 22:00:00 12.1 28 Oeste 90 Norte 0 -- -- 47
2019-11-23 21:00:00 12.4 33 Oeste 85 Oeste 0 -- -- 46
2019-11-23 20:00:00 12.8 29 Noroeste 81 Noroeste 0 -- -- 44
2019-11-23 19:00:00 13.1 25 Noroeste 69 Noroeste 0 -- -- 43
2019-11-23 18:00:00 13.3 31 Noroeste 87 Noroeste 0 -- -- 42
2019-11-23 17:00:00 13.2 23 Noroeste 82 Oeste 0 -- -- 43
2019-11-23 16:00:00 13 31 Noroeste 88 Noroeste 0 -- -- 45
2019-11-23 15:00:00 12.9 31 Oeste 89 Oeste 0 -- -- 47
2019-11-23 14:00:00 12.4 26 Oeste 80 Noroeste 0 -- -- 50
2019-11-23 13:00:00 12.3 24 Oeste 66 Sudoeste 0 -- -- 54
2019-11-23 12:00:00 11 18 Noroeste 63 Oeste 0 -- -- 62
2019-11-23 11:00:00 11.3 21 Noroeste 70 Oeste 0 -- -- 55
2019-11-23 10:00:00 12.7 22 Noroeste 65 Oeste 0 -- -- 48
2019-11-23 09:00:00 13 22 Oeste 53 Oeste 0 -- -- 46
2019-11-23 08:00:00 13 15 Oeste 41 Oeste 0 -- -- 48
2019-11-23 07:00:00 12 5 Sudoeste 24 Sudoeste 0 -- -- 60
2019-11-23 06:00:00 12.8 3 Sudoeste 31 Oeste 0 -- -- 56
2019-11-23 05:00:00 10.1 0 Calma 6 Oeste 0 -- -- 85
2019-11-23 04:00:00 9.9 2 Noroeste 5 Norte 0 -- -- 87
2019-11-23 03:00:00 10.4 3 Norte 5 Norte 0 -- -- 88
2019-11-23 02:00:00 12 3 Sudoeste 27 Sudoeste 0.2 -- -- 86
2019-11-23 01:00:00 13.8 12 Sudoeste 30 Oeste 0 -- -- 83
2019-11-23 00:00:00 13.8 12 Sudoeste 23 Sudoeste 0 -- -- 88
2019-11-22 23:00:00 13.6 8 Sudoeste 19 Sudoeste 0 -- -- 92
2019-11-22 22:00:00 14.1 6 Sudoeste 25 Sudoeste 0.2 -- -- 93
2019-11-22 21:00:00 13.8 4 Sur 20 Sur 0.1 -- -- 93
2019-11-22 20:00:00 13.2 3 Sudoeste 8 Sudoeste 0.9 -- -- 94
2019-11-22 19:00:00 12 3 Nordeste 13 Norte 3.2 -- -- 94
2019-11-22 18:00:00 11.9 4 Norte 10 Norte 2.9 -- -- 93
2019-11-22 17:00:00 12.2 3 Norte 8 Norte 0.5 -- -- 90
2019-11-22 16:00:00 13.5 0 Calma 8 Norte 0.1 -- -- 77
2019-11-22 15:00:00 13.6 4 Sur 13 Sur 0 -- -- 74
2019-11-22 14:00:00 14.3 4 Sur 13 Sur 0 -- -- 69
2019-11-22 13:00:00 14.7 4 Sudeste 11 Sur 0 -- -- 71
2019-11-22 12:00:00 15.4 5 Este 12 Este 0 -- -- 69
2019-11-22 11:00:00 13.6 4 Norte 14 Nordeste 0 -- -- 78
2019-11-22 10:00:00 13.5 6 Norte 14 Norte 0 -- -- 78
2019-11-22 09:00:00 11.6 5 Nordeste 9 Nordeste 0 -- -- 84
2019-11-22 08:00:00 10.2 3 Norte 10 Nordeste 0 -- -- 89
2019-11-22 07:00:00 10.4 4 Nordeste 10 Norte 0 -- -- 86
2019-11-22 06:00:00 10.8 4 Norte 9 Norte 0 -- -- 81
2019-11-22 05:00:00 11.3 4 Norte 11 Norte 0 -- -- 77
2019-11-22 04:00:00 11.6 4 Norte 10 Nordeste 0 -- -- 77
2019-11-22 03:00:00 12.3 4 Norte 14 Norte 0 -- -- 74
2019-11-22 02:00:00 12.7 5 Norte 12 Norte 0 -- -- 73
2019-11-22 01:00:00 11.9 4 Norte 9 Norte 0 -- -- 72
2019-11-22 00:00:00 11.7 4 Nordeste 9 Nordeste 0 -- -- 71
2019-11-21 23:00:00 11.5 5 Nordeste 8 Norte 0 -- -- 70
2019-11-21 22:00:00 10.8 2 Nordeste 6 Nordeste 0 -- -- 73
2019-11-21 21:00:00 11.7 2 Nordeste 5 Norte 0 -- -- 69
2019-11-21 20:00:00 12.5 2 Noroeste 10 Sudoeste 0 -- -- 66
2019-11-21 19:00:00 12.5 3 Sudoeste 13 Sudoeste 0 -- -- 66
2019-11-21 18:00:00 12.5 7 Sudoeste 14 Sudoeste 0 -- -- 66
2019-11-21 17:00:00 12.9 8 Sudoeste 13 Sudoeste 0 -- -- 64
2019-11-21 16:00:00 13.3 5 Sudoeste 15 Sudoeste 0 -- -- 66
2019-11-21 15:00:00 14.3 5 Sur 22 Sur 0 -- -- 57
2019-11-21 14:00:00 14.8 6 Sur 25 Sur 0 -- -- 52
2019-11-21 13:00:00 15.7 7 Sudoeste 28 Noroeste 0 -- -- 44
2019-11-21 12:00:00 15 4 Norte 20 Sudeste 0 -- -- 46
2019-11-21 11:00:00 14.4 6 Sudoeste 19 Sur 0 -- -- 49
2019-11-21 10:00:00 11.8 3 Noroeste 15 Sudoeste 0 -- -- 59
2019-11-21 09:00:00 10.1 2 Sur 12 Noroeste 0 -- -- 68
2019-11-21 08:00:00 -- -- -- -- -- -- -- -- --
2019-11-21 07:00:00 -- -- -- -- -- -- -- -- --
2019-11-21 06:00:00 -- -- -- -- -- -- -- -- --
2019-11-21 05:00:00 -- -- -- -- -- -- -- -- --
2019-11-21 04:00:00 -- -- -- -- -- -- -- -- --
2019-11-21 03:00:00 -- -- -- -- -- -- -- -- --
2019-11-21 02:00:00 -- -- -- -- -- -- -- -- --
2019-11-21 01:00:00 -- -- -- -- -- -- -- -- --
2019-11-21 00:00:00 -- -- -- -- -- -- -- -- --
2019-11-20 23:00:00 -- -- -- -- -- -- -- -- --
2019-11-20 22:00:00 -- -- -- -- -- -- -- -- --
2019-11-20 21:00:00 -- -- -- -- -- -- -- -- --
2019-11-20 20:00:00 -- -- -- -- -- -- -- -- --
2019-11-20 19:00:00 10.2 3 Norte 8 Nordeste 0 -- -- 74
2019-11-20 18:00:00 11.8 7 Norte 15 Norte 0 -- -- 70
2019-11-20 17:00:00 11.8 5 Norte 13 Nordeste 0 -- -- 69
2019-11-20 16:00:00 12.2 5 Norte 12 Nordeste 0 -- -- 65
2019-11-20 15:00:00 12.7 4 Nordeste 10 Nordeste 0 -- -- 63
2019-11-20 14:00:00 12.9 4 Este 12 Este 0 -- -- 60
2019-11-20 13:00:00 13 5 Este 11 Este 0 -- -- 62
2019-11-20 12:00:00 12.1 4 Este 11 Este 0 -- -- 62
2019-11-20 11:00:00 12.1 5 Este 10 Este 0 -- -- 60
2019-11-20 10:00:00 10.4 2 Este 8 Este 0 -- -- 65
2019-11-20 09:00:00 7.7 0 Calma 3 Nordeste 0 -- -- 76
2019-11-20 08:00:00 5.8 0 Calma 4 Nordeste 0 -- -- 79
2019-11-20 07:00:00 5.6 0 Calma 4 Norte 0 -- -- 79
2019-11-20 06:00:00 5.2 0 Calma 3 Norte 0 -- -- 78
2019-11-20 05:00:00 5.5 0 Calma 3 Nordeste 0 -- -- 76
2019-11-20 04:00:00 5.7 0 Calma 5 Norte 0 -- -- 76
2019-11-20 03:00:00 5.5 4 Noroeste 7 Noroeste 0 -- -- 77
2019-11-20 02:00:00 5.8 0 Calma 5 Noroeste 0 -- -- 76
2019-11-20 01:00:00 5.5 2 Norte 6 Nordeste 0 -- -- 73
2019-11-20 00:00:00 6.5 0 Calma 7 Norte 0 -- -- 67
2019-11-19 23:00:00 7.7 0 Calma 7 Oeste 0 -- -- 60
2019-11-19 22:00:00 9.7 0 Calma 13 Sudoeste 0 -- -- 56
2019-11-19 21:00:00 9.7 3 Sudoeste 17 Sudoeste 0 -- -- 56
2019-11-19 20:00:00 9.6 7 Sudoeste 16 Sudoeste 0 -- -- 55
2019-11-19 19:00:00 9.1 4 Sudoeste 18 Este 0 -- -- 55
2019-11-19 18:00:00 11 5 Sur 32 Noroeste 0 -- -- 50
2019-11-19 17:00:00 11.8 14 Noroeste 32 Noroeste 0 -- -- 49
2019-11-19 16:00:00 11.9 14 Noroeste 34 Noroeste 0 -- -- 48
2019-11-19 15:00:00 12 20 Noroeste 37 Oeste 0 -- -- 46
2019-11-19 14:00:00 12.2 10 Oeste 35 Oeste 0 -- -- 47
2019-11-19 13:00:00 12.2 8 Noroeste 38 Noroeste 0 -- -- 48
2019-11-19 12:00:00 10.7 14 Noroeste 41 Noroeste 0 -- -- 50
2019-11-19 11:00:00 9.9 18 Noroeste 58 Noroeste 0 -- -- 52
2019-11-19 10:00:00 9.3 25 Noroeste 63 Noroeste 0 -- -- 52
2019-11-19 09:00:00 8.5 32 Noroeste 62 Noroeste 0 -- -- 54
2019-11-19 08:00:00 8.2 30 Noroeste 67 Noroeste 0 -- -- 55
2019-11-19 07:00:00 8.2 30 Noroeste 58 Noroeste 0 -- -- 55
2019-11-19 06:00:00 8.1 26 Noroeste 57 Noroeste 0 -- -- 54
2019-11-19 05:00:00 8.1 25 Noroeste 60 Noroeste 0 -- -- 55
2019-11-19 04:00:00 8.2 24 Noroeste 54 Norte 0 -- -- 55
2019-11-19 03:00:00 8.2 22 Noroeste 62 Noroeste 0 -- -- 53
2019-11-19 02:00:00 8.2 27 Noroeste 53 Oeste 0 -- -- 51
2019-11-19 01:00:00 8.2 29 Noroeste 60 Noroeste 0 -- -- 51
2019-11-19 00:00:00 8.6 29 Noroeste 66 Noroeste 0 -- -- 51
2019-11-18 23:00:00 8.5 32 Noroeste 68 Noroeste 0 -- -- 51
2019-11-18 22:00:00 8.9 29 Noroeste 71 Noroeste 0 -- -- 51
2019-11-18 21:00:00 9.4 22 Noroeste 62 Noroeste 0 -- -- 51
2019-11-18 20:00:00 9.9 21 Oeste 55 Noroeste 0 -- -- 51
2019-11-18 19:00:00 10.4 17 Noroeste 55 Noroeste 0 -- -- 52
2019-11-18 18:00:00 11.1 18 Noroeste 42 Noroeste 0 -- -- 50
2019-11-18 17:00:00 11.7 15 Noroeste 36 Oeste 0 -- -- 49
2019-11-18 16:00:00 11.5 15 Noroeste 39 Oeste 0 -- -- 50
2019-11-18 15:00:00 12.1 15 Noroeste 38 Noroeste 0 -- -- 50
2019-11-18 14:00:00 11.7 16 Noroeste 42 Noroeste 0 -- -- 53
2019-11-18 13:00:00 10.5 23 Noroeste 44 Noroeste 0 -- -- 55
2019-11-18 12:00:00 9.9 26 Noroeste 49 Noroeste 0 -- -- 60
2019-11-18 11:00:00 9.8 3 Noroeste 21 Norte 0 -- -- 62
2019-11-18 10:00:00 9 3 Este 18 Nordeste 0 -- -- 67
2019-11-18 09:00:00 8.9 0 Calma 21 Norte 0 -- -- 70
2019-11-18 08:00:00 8.9 7 Nordeste 22 Norte 0 -- -- 69
2019-11-18 07:00:00 9.4 6 Sudeste 23 Este 0 -- -- 67
2019-11-18 06:00:00 9.7 11 Noroeste 38 Noroeste 0 -- -- 66
2019-11-18 05:00:00 10.5 6 Sudeste 22 Sudoeste 0 -- -- 63
2019-11-18 04:00:00 9.7 5 Sudeste 15 Sudoeste 0 -- -- 66
2019-11-18 03:00:00 10.8 8 Noroeste 23 Norte 0 -- -- 62
2019-11-18 02:00:00 11.2 3 Oeste 15 Sudoeste 0 -- -- 61
2019-11-18 01:00:00 10.9 0 Calma 16 Sudeste 0 -- -- 61
2019-11-18 00:00:00 11.2 4 Sur 23 Este 0 -- -- 60
2019-11-17 23:00:00 11.6 4 Sur 20 Noroeste 0 -- -- 59
2019-11-17 22:00:00 11.3 4 Sur 14 Sur 0 -- -- 61
2019-11-17 21:00:00 11.4 2 Sudeste 22 Sudeste 0 -- -- 61
2019-11-17 20:00:00 11.5 6 Sur 21 Sudoeste 0 -- -- 61
2019-11-17 19:00:00 12.1 6 Sudoeste 20 Sudoeste 0 -- -- 57
2019-11-17 18:00:00 12.6 4 Sudoeste 13 Sudoeste 0 -- -- 51
2019-11-17 17:00:00 13 6 Sudoeste 23 Sudoeste 0 -- -- 50
2019-11-17 16:00:00 14 6 Oeste 26 Oeste 0 -- -- 46
2019-11-17 15:00:00 14.5 9 Sudoeste 33 Sudoeste 0 -- -- 46
2019-11-17 14:00:00 14.9 7 Sudoeste 34 Sudoeste 0 -- -- 46
2019-11-17 13:00:00 13.2 2 Sur 32 Oeste 0 -- -- 47
2019-11-17 12:00:00 11.4 6 Oeste 39 Oeste 0 -- -- 50
2019-11-17 11:00:00 10 10 Oeste 39 Norte 0 -- -- 51
2019-11-17 10:00:00 9.5 14 Oeste 41 Oeste 0 -- -- 50
2019-11-17 09:00:00 9.4 18 Oeste 69 Oeste 0 -- -- 50
2019-11-17 08:00:00 8.7 25 Oeste 68 Noroeste 0 -- -- 50
2019-11-17 07:00:00 9 25 Oeste 74 Oeste 0 -- -- 49
2019-11-17 06:00:00 9.6 24 Noroeste 58 Oeste 0 -- -- 47
2019-11-17 05:00:00 9.2 15 Oeste 45 Sudoeste 0 -- -- 50
2019-11-17 04:00:00 9.3 8 Sudoeste 33 Sudeste 0 -- -- 53
2019-11-17 03:00:00 8.9 3 Sudoeste 24 Noroeste 0 -- -- 55
2019-11-17 02:00:00 7.9 4 Sudoeste 17 Sudoeste 0 -- -- 58
2019-11-17 01:00:00 8.5 6 Sur 34 Sudoeste 0 -- -- 55
2019-11-17 00:00:00 8.9 8 Sudoeste 25 Sudoeste 0 -- -- 54
2019-11-16 23:00:00 9.7 12 Oeste 40 Oeste 0 -- -- 51
2019-11-16 22:00:00 10 13 Oeste 38 Oeste 0 -- -- 50
2019-11-16 21:00:00 9.3 8 Sudoeste 23 Oeste 0 -- -- 54
2019-11-16 20:00:00 9.4 8 Oeste 31 Oeste 0 -- -- 55
2019-11-16 19:00:00 9.3 8 Sudoeste 22 Oeste 0 -- -- 57
2019-11-16 18:00:00 9.9 3 Noroeste 29 Noroeste 0 -- -- 55
2019-11-16 17:00:00 10.3 4 Este 20 Oeste 0 -- -- 55
2019-11-16 16:00:00 10.6 2 Oeste 42 Noroeste 0 -- -- 52
2019-11-16 15:00:00 10.5 16 Noroeste 55 Norte 0 -- -- 50
2019-11-16 14:00:00 10.7 17 Noroeste 48 Noroeste 0 -- -- 50
2019-11-16 13:00:00 9.8 23 Noroeste 45 Noroeste 0 -- -- 53
2019-11-16 12:00:00 9.1 28 Noroeste 60 Noroeste 0 -- -- 52
2019-11-16 11:00:00 8 25 Noroeste 49 Noroeste 0 -- -- 56
2019-11-16 10:00:00 7.6 23 Noroeste 53 Noroeste 0 -- -- 58
2019-11-16 09:00:00 6.8 11 Oeste 55 Noroeste 0 -- -- 59
2019-11-16 08:00:00 6.6 29 Noroeste 57 Oeste 0 -- -- 59
2019-11-16 07:00:00 6.4 11 Oeste 38 Oeste 0 -- -- 63
2019-11-16 06:00:00 6.6 4 Sur 36 Oeste 0 -- -- 63
2019-11-16 05:00:00 6.9 6 Sudeste 25 Sur 0 -- -- 62
2019-11-16 04:00:00 7 6 Este 20 Este 0 -- -- 63
2019-11-16 03:00:00 7.6 3 Sur 37 Sudoeste 0 -- -- 59
2019-11-16 02:00:00 7.6 5 Sudoeste 45 Sudoeste 0 -- -- 60
2019-11-16 01:00:00 7.9 2 Oeste 24 Sudoeste 0 -- -- 58
2019-11-16 00:00:00 8.3 6 Sudoeste 33 Norte 0 -- -- 57